Regional Weather Roundup
Issued by NWS

Home | Current Version | Previous Version | Text Only | Print | Product List | Glossary On
Versions: 1 2 3 4 5 6 7 8 9 10 11 12 13 14 15 16 17 18 19 20 21 22 23 24 25 26 27 28 29 30 31 32 33 34 35 36 37 38 39 40 41 42 43 44 45 46 47 48 49 50
000
ASUS43 KLSX 210907
RWRMO

WEATHER SUMMARY FOR MISSOURI
NATIONAL WEATHER SERVICE SPRINGFIELD MO
300 AM CST SAT JAN 21 2017

NOTE: "FAIR" INDICATES FEW OR NO CLOUDS BELOW 12,000 FEET WITH NO
       SIGNIFICANT WEATHER AND/OR OBSTRUCTIONS TO VISIBILITY.
       CURRENT SKY AND/OR WEATHER CONDITIONS ARE NOT AVAILABLE FOR
       CHILLICOTHE AND FARMINGTON.

MOZ001>031-035>038-043-044-053-054-211000-
...NORTHERN AND WESTERN MISSOURI...

CITY           SKY/WX    TMP DP  RH WIND       PRES   REMARKS
KANSAS CTY INT CLEAR     40  38  93 W8        29.43R
KANSAS C DTWN  CLEAR     41  40  96 SW6       29.43R
LEE`S SUMMIT   CLEAR     44  39  82 SW17      29.43R
ST JOSEPH      FOG       36  36 100 CALM      29.43R VSB 3/4
CHILLICOTHE      N/A     40  40 100 CALM      29.43F
KIRKSVILLE     CLEAR     40  40 100 S6        29.44F FOG

$$
MOZ066>068-077>081-088>096-101>105-211000-
...SOUTHWEST MISSOURI...

CITY           SKY/WX    TMP DP  RH WIND       PRES   REMARKS
SPRINGFIELD    CLEAR     49  38  65 S7        29.53S
JOPLIN         CLEAR     54  37  52 SW14      29.53R
BRANSON        CLEAR     57  39  51 S8        29.57F

$$
MOZ032>034-039>042-045>050-055>058-069>072-211000-
...CENTRAL MISSOURI...

CITY           SKY/WX    TMP DP  RH WIND       PRES   REMARKS
COLUMBIA       CLEAR     50  43  77 S14       29.48F
JEFFERSON CITY CLEAR     54  42  64 S9        29.50F
ROLLA          CLEAR     52  43  71 S14       29.53F
SEDALIA        CLEAR     52  40  63 S15       29.47S
WHITEMAN AFB   CLEAR     43  43 100 SW13      29.44R
WARRENSBURG    CLEAR     43  36  75 S10G16    29.44S
OSAGE BEACH    CLEAR     52  41  66 S9        29.51F

$$
MOZ051-052-059>065-211000-
...EAST CENTRAL MISSOURI...

CITY           SKY/WX    TMP DP  RH WIND       PRES   REMARKS
ST LOUIS INTL  PTCLDY    53  48  83 S8        29.57S
SPIRIT OF STL  CLEAR     54  47  77 S8        29.55S
ST CHARLES     CLEAR     41  41 100 E7        29.55F FOG

$$
MOZ072>076-082>087-097>100-106>115-211000-
...SOUTH CENTRAL AND SOUTHEAST MISSOURI...

CITY           SKY/WX    TMP DP  RH WIND       PRES   REMARKS
CAPE GIRARDEAU MOCLDY    52  48  86 CALM      29.65S
FARMINGTON     PTCLDY    49  46  90 S7        29.62S
POPLAR BLUFF   MOCLDY    47  46  97 N3        29.64F FOG
WEST PLAINS    CLOUDY    51  45  79 S7        29.61S

$$


USA.gov is the U.S. government's official web portal to all federal, state and local government web resources and services.